TimeEDT,TemperatureF,Dew PointF,Humidity,Sea Level PressureIn,VisibilityMPH,Wind Direction,Wind SpeedMPH,Gust SpeedMPH,PrecipitationIn,Events,Conditions,WindDirDegrees,DateUTC
12:15 AM,65.5,63.5,93,30.43,5.0,Calm,Calm,-,N/A,,Overcast,0,2013-07-15 04:15:00
12:35 AM,65.8,63.9,93,30.43,7.0,Calm,Calm,-,N/A,,Overcast,0,2013-07-15 04:35:00
12:55 AM,66.2,64.0,93,30.43,7.0,SE,3.5,-,N/A,,Overcast,140,2013-07-15 04:55:00
1:15 AM,66.2,64.4,94,30.43,5.0,Calm,Calm,-,N/A,Rain,Rain,0,2013-07-15 05:15:00
1:35 AM,66.4,64.4,93,30.43,5.0,Calm,Calm,-,N/A,,Overcast,0,2013-07-15 05:35:00
1:55 AM,66.4,64.4,93,30.43,5.0,SE,4.6,-,N/A,,Overcast,130,2013-07-15 05:55:00
2:15 AM,66.4,64.4,93,30.43,4.0,SE,5.8,-,N/A,,Overcast,140,2013-07-15 06:15:00
2:35 AM,66.4,64.2,93,30.42,5.0,SSE,3.5,-,N/A,,Overcast,150,2013-07-15 06:35:00
2:55 AM,66.4,64.4,93,30.42,5.0,Calm,Calm,-,N/A,,Overcast,0,2013-07-15 06:55:00
3:15 AM,66.4,64.4,93,30.42,5.0,SE,3.5,-,N/A,,Light Drizzle,130,2013-07-15 07:15:00
3:35 AM,66.4,64.4,93,30.42,2.0,ESE,3.5,-,N/A,Rain,Light Rain,120,2013-07-15 07:35:00
3:55 AM,66.2,64.4,94,30.42,4.0,Calm,Calm,-,N/A,,Overcast,0,2013-07-15 07:55:00
4:15 AM,66.2,64.0,93,30.42,3.0,Calm,Calm,-,N/A,,Overcast,0,2013-07-15 08:15:00
4:35 AM,66.0,63.9,93,30.42,3.0,Calm,Calm,-,N/A,,Overcast,0,2013-07-15 08:35:00
4:55 AM,65.8,63.9,93,30.43,3.0,Calm,Calm,-,N/A,,Overcast,0,2013-07-15 08:55:00
5:15 AM,65.8,63.9,93,30.43,2.5,SE,3.5,-,N/A,,Overcast,130,2013-07-15 09:15:00
5:35 AM,65.7,63.7,93,30.43,3.0,Calm,Calm,-,N/A,,Overcast,0,2013-07-15 09:35:00
5:55 AM,65.3,63.3,93,30.43,2.0,Calm,Calm,-,N/A,,Overcast,0,2013-07-15 09:55:00
6:15 AM,65.3,63.1,93,30.43,2.0,Calm,Calm,-,N/A,,Light Drizzle,0,2013-07-15 10:15:00
6:35 AM,64.9,63.0,93,30.43,2.5,Calm,Calm,-,N/A,,Mostly Cloudy,0,2013-07-15 10:35:00
6:55 AM,65.1,63.0,93,30.44,1.2,Calm,Calm,-,N/A,,Overcast,0,2013-07-15 10:55:00
7:15 AM,65.3,63.3,93,30.45,3.0,Calm,Calm,-,N/A,,Overcast,0,2013-07-15 11:15:00
7:35 AM,65.7,63.7,93,30.45,3.0,Calm,Calm,-,N/A,,Overcast,0,2013-07-15 11:35:00
7:55 AM,65.8,63.9,93,30.45,2.5,Calm,Calm,-,N/A,,Overcast,0,2013-07-15 11:55:00
8:15 AM,66.7,64.6,93,30.46,5.0,Calm,Calm,-,N/A,,Overcast,0,2013-07-15 12:15:00
8:35 AM,68.0,64.6,89,30.46,10.0,ESE,4.6,-,N/A,,Overcast,120,2013-07-15 12:35:00
8:55 AM,68.4,64.2,87,30.46,10.0,Calm,Calm,-,N/A,,Overcast,0,2013-07-15 12:55:00
9:15 AM,68.2,63.0,83,30.46,10.0,SE,3.5,-,N/A,,Mostly Cloudy,130,2013-07-15 13:15:00
9:35 AM,69.6,63.0,79,30.46,10.0,ESE,4.6,-,N/A,,Scattered Clouds,110,2013-07-15 13:35:00
9:55 AM,70.7,62.2,75,30.47,10.0,Calm,Calm,-,N/A,,Scattered Clouds,0,2013-07-15 13:55:00
10:15 AM,70.7,60.6,70,30.46,10.0,ESE,5.8,-,N/A,,Scattered Clouds,120,2013-07-15 14:15:00
10:35 AM,71.8,61.5,70,30.47,10.0,Calm,Calm,-,N/A,,Scattered Clouds,0,2013-07-15 14:35:00
10:55 AM,72.9,61.9,68,30.47,10.0,SE,3.5,-,N/A,,Scattered Clouds,130,2013-07-15 14:55:00
11:15 AM,72.5,60.8,67,30.47,10.0,SE,3.5,-,N/A,,Mostly Cloudy,140,2013-07-15 15:15:00
11:35 AM,73.2,61.0,65,30.47,10.0,South,3.5,-,N/A,,Mostly Cloudy,180,2013-07-15 15:35:00
11:55 AM,72.3,60.1,65,30.47,10.0,SSE,3.5,-,N/A,,Overcast,150,2013-07-15 15:55:00
12:15 PM,73.6,61.2,65,30.47,10.0,SE,4.6,-,N/A,,Overcast,140,2013-07-15 16:15:00
12:35 PM,72.9,59.7,63,30.47,10.0,Calm,Calm,-,N/A,,Mostly Cloudy,0,2013-07-15 16:35:00
12:55 PM,73.4,60.6,64,30.47,10.0,Calm,Calm,-,N/A,,Mostly Cloudy,0,2013-07-15 16:55:00
1:15 PM,73.4,60.1,63,30.47,10.0,ENE,3.5,-,N/A,,Overcast,60,2013-07-15 17:15:00
1:35 PM,74.5,60.4,61,30.46,10.0,ESE,3.5,-,N/A,,Overcast,120,2013-07-15 17:35:00
1:55 PM,73.8,61.5,65,30.46,10.0,Calm,Calm,-,N/A,,Mostly Cloudy,0,2013-07-15 17:55:00
2:15 PM,74.7,62.1,65,30.45,10.0,East,5.8,-,N/A,,Mostly Cloudy,100,2013-07-15 18:15:00
2:35 PM,74.1,61.9,65,30.45,10.0,Calm,Calm,-,N/A,,Mostly Cloudy,0,2013-07-15 18:35:00
2:55 PM,75.4,61.9,63,30.45,10.0,ESE,5.8,-,N/A,,Overcast,120,2013-07-15 18:55:00
3:15 PM,76.6,60.8,58,30.45,10.0,Calm,Calm,-,N/A,,Scattered Clouds,0,2013-07-15 19:15:00
3:35 PM,75.6,61.3,61,30.43,10.0,Calm,Calm,-,N/A,,Scattered Clouds,0,2013-07-15 19:35:00
3:55 PM,75.9,60.3,58,30.43,10.0,Calm,Calm,-,N/A,,Scattered Clouds,0,2013-07-15 19:55:00
4:15 PM,76.3,59.9,57,30.43,10.0,SSW,3.5,-,N/A,,Clear,200,2013-07-15 20:15:00
4:35 PM,76.6,60.1,56,30.43,10.0,Calm,Calm,-,N/A,,Scattered Clouds,0,2013-07-15 20:35:00
4:55 PM,75.9,59.5,57,30.43,10.0,SSW,3.5,-,N/A,,Scattered Clouds,210,2013-07-15 20:55:00
5:15 PM,76.3,60.4,58,30.43,10.0,SSE,4.6,-,N/A,,Clear,150,2013-07-15 21:15:00
5:35 PM,76.3,61.2,59,30.43,10.0,SE,3.5,-,N/A,,Scattered Clouds,140,2013-07-15 21:35:00
5:55 PM,76.1,61.0,59,30.42,10.0,Calm,Calm,-,N/A,,Scattered Clouds,0,2013-07-15 21:55:00
6:15 PM,75.7,59.7,57,30.42,10.0,SE,5.8,-,N/A,,Scattered Clouds,140,2013-07-15 22:15:00
6:35 PM,75.2,59.7,58,30.42,10.0,ESE,3.5,-,N/A,,Clear,120,2013-07-15 22:35:00
6:55 PM,75.0,60.1,60,30.42,10.0,ESE,3.5,-,N/A,,Clear,110,2013-07-15 22:55:00
7:15 PM,74.5,61.0,63,30.42,10.0,SE,3.5,-,N/A,,Clear,130,2013-07-15 23:15:00
7:35 PM,73.8,61.7,66,30.42,10.0,SE,3.5,-,N/A,,Clear,130,2013-07-15 23:35:00
7:55 PM,72.9,61.9,68,30.43,10.0,SSE,3.5,-,N/A,,Clear,150,2013-07-15 23:55:00
8:15 PM,72.5,61.7,69,30.43,10.0,Calm,Calm,-,N/A,,Clear,0,2013-07-16 00:15:00
8:35 PM,71.6,61.7,71,30.43,10.0,Calm,Calm,-,N/A,,Clear,0,2013-07-16 00:35:00
8:55 PM,71.1,62.1,73,30.43,10.0,Calm,Calm,-,N/A,,Clear,0,2013-07-16 00:55:00
9:15 PM,69.8,61.7,75,30.43,10.0,Calm,Calm,-,N/A,,Clear,0,2013-07-16 01:15:00
9:35 PM,69.1,61.9,78,30.43,10.0,Calm,Calm,-,N/A,,Clear,0,2013-07-16 01:35:00
9:55 PM,69.1,61.9,78,30.44,10.0,Calm,Calm,-,N/A,,Clear,0,2013-07-16 01:55:00
10:15 PM,69.8,62.1,76,30.45,10.0,Calm,Calm,-,N/A,,Clear,0,2013-07-16 02:15:00
10:35 PM,70.0,61.7,75,30.45,10.0,Calm,Calm,-,N/A,,Clear,0,2013-07-16 02:35:00
10:55 PM,68.9,61.7,78,30.45,10.0,Calm,Calm,-,N/A,,Clear,0,2013-07-16 02:55:00
11:15 PM,68.2,61.9,80,30.45,10.0,Calm,Calm,-,N/A,,Clear,0,2013-07-16 03:15:00
11:35 PM,68.5,61.7,79,30.45,10.0,Calm,Calm,-,N/A,,Clear,0,2013-07-16 03:35:00
11:55 PM,69.6,61.2,74,30.45,10.0,Calm,Calm,-,N/A,,Clear,0,2013-07-16 03:55:00